Simultaneous Nadir Overpasses (SNOs) Predictions

Prediction of SNOs between GOES-15 and METOP-B Satellite Orbit:

Table of predicted SNOs for the next 14.0 days since TLE Epoch: 4/23/2022
Index Date Time (GOES-15) GOES-15 Lat,Lon METOP-B Lat,Lon Distance(km) Time Diff (sec)
1 04/23/2022 17:56:58 -0.13,-128.32 -0.52,-126.45 211.86 80
2 04/25/2022 06:13:19 0.14,-128.24 -0.48,-131.05 320.57 80
3 04/26/2022 05:55:19 0.14,-128.22 0.64,-126.06 247.03 80
4 04/27/2022 18:11:30 -0.15,-128.26 0.38,-130.62 269.33 80
5 04/28/2022 17:53:31 -0.14,-128.24 -0.74,-125.62 298.28 80
6 04/30/2022 06:09:50 0.15,-128.16 -0.32,-130.21 234.25 80
7 05/01/2022 05:51:51 0.15,-128.14 0.81,-125.22 332.97 80
8 05/02/2022 18:08:02 -0.16,-128.16 0.20,-129.78 184.22 80
9 05/03/2022 17:50:03 -0.16,-128.14 -0.93,-124.79 382.63 80
10 05/05/2022 06:06:22 0.17,-128.05 -0.12,-129.37 151.01 80
11 05/06/2022 05:48:22 0.17,-128.02 1.01,-124.38 415.41 80
